Date String (YYYY-MM-DD hh:mm:ss) UTC,Instrument flags,absolute air pressure of the measurement (hPa),sample flow rate (lpm),inlet stack bypass flow (lpm),air temperature of the measurement (°C),ambient temperature measured by the external sensor (°C),aerosol sample conditioner tube jacket temperature (°C),OPC LED temperature (°C),internal box temperature (°C),relative humidity of the measurement (%),span deviation,mass concentration of particles derived from Lorenz-Mie calculation of OPC scattering (μg/m³),mass concentration of particles derived from Lorenz-Mie calculation of OPC scattering (μg/m³),mass concentration of particles derived from Lorenz-Mie calculation of OPC scattering (μg/m³)
DateTimeUTC,F1_M11,P_M11,Q1_M11,Q2_M11,T1_M11,T2_M11,T3_M11,T4_M11,T5_M11,U1_M11,ZSPAN_M11,X0_M11,X2_M11,X1_M11
2023-09-02 01:00:00,SystemResetWarning,0829.5,5.00,000.00,027.5,024.7,000.0,035.7,028.9,22.0,0000.0,0011.14,0003.71,0002.83
2023-09-02 01:01:00,SystemResetWarning,0829.5,5.00,000.00,027.5,025.2,000.0,035.8,029.1,22.0,0000.0,0010.44,0003.76,0002.87
2023-09-02 01:02:00,SystemResetWarning,0829.6,5.00,000.00,027.6,025.7,000.0,035.8,029.2,21.9,0000.0,0010.25,0003.82,0002.89
2023-09-02 01:03:00,SystemResetWarning,0829.5,5.00,000.00,027.6,026.1,000.0,035.8,029.4,22.2,0000.0,0010.55,0003.86,0002.93
2023-09-02 01:04:00,SystemResetWarning,0829.5,5.00,000.00,027.7,026.4,000.0,035.9,029.5,21.9,0000.0,0011.05,0003.90,0002.97
2023-09-02 01:05:00,SystemResetWarning,0829.5,4.98,000.00,027.8,026.3,000.0,035.9,029.5,21.6,0000.0,0010.67,0003.93,0002.98
2023-09-02 01:06:00,SystemResetWarning,0829.5,4.99,000.00,027.7,024.9,000.0,035.8,029.0,21.2,0000.0,0010.75,0003.92,0003.00
2023-09-02 01:07:00,SystemResetWarning,0829.5,5.00,000.00,027.6,024.1,000.0,035.8,028.8,22.0,0000.0,0011.72,0003.90,0003.04
2023-09-02 01:08:00,SystemResetWarning,0829.5,5.01,000.00,027.5,024.4,000.0,035.7,028.8,22.2,0000.0,0011.08,0003.89,0003.04
2023-09-02 01:09:00,SystemResetWarning,0829.6,5.01,000.00,027.5,024.7,000.0,035.8,028.9,21.9,0000.0,0011.28,0003.93,0003.05
2023-09-02 01:10:00,SystemResetWarning,0829.6,5.00,000.00,027.5,025.2,000.0,035.8,029.1,21.7,0000.0,0012.18,0003.96,0003.06
2023-09-02 01:11:00,SystemResetWarning,0829.6,5.00,000.00,027.6,025.6,000.0,035.8,029.2,21.6,0000.0,0012.87,0003.95,0003.08
2023-09-02 01:12:00,SystemResetWarning,0829.6,5.00,000.00,027.6,026.0,000.0,035.8,029.4,21.5,0000.0,0013.10,0003.96,0003.08
2023-09-02 01:13:00,SystemResetWarning,0829.7,5.00,000.00,027.7,026.4,000.0,035.9,029.5,21.5,0000.0,0013.02,0003.95,0003.08
2023-09-02 01:14:00,SystemResetWarning,0829.7,5.00,000.00,027.8,026.7,000.0,035.9,029.6,21.6,0000.0,0012.95,0003.97,0003.05
2023-09-02 01:15:00,SystemResetWarning,0829.6,4.98,000.00,027.8,025.9,000.0,035.9,029.3,21.8,0000.0,0012.38,0003.96,0003.02
2023-09-02 01:16:00,SystemResetWarning,0829.6,5.00,000.00,027.7,024.4,000.0,035.8,028.8,22.0,0000.0,0011.77,0003.93,0003.02
2023-09-02 01:17:00,SystemResetWarning,0829.5,5.01,000.00,027.5,024.2,000.0,035.8,028.7,22.1,0000.0,0011.79,0003.95,0003.03
2023-09-02 01:18:00,SystemResetWarning,0829.5,5.00,000.00,027.5,024.5,000.0,035.8,028.8,22.0,0000.0,0012.38,0003.99,0003.03
2023-09-02 01:19:00,SystemResetWarning,0829.6,5.00,000.00,027.5,024.9,000.0,035.8,029.0,22.0,0000.0,0013.34,0004.03,0003.07
2023-09-02 01:20:00,SystemResetWarning,0829.6,5.00,000.00,027.5,025.3,000.0,035.8,029.1,22.1,0000.0,0013.50,0004.08,0003.08
2023-09-02 01:21:00,SystemResetWarning,0829.6,5.00,000.00,027.6,025.8,000.0,035.8,029.3,22.2,0000.0,0013.40,0004.11,0003.08
2023-09-02 01:22:00,SystemResetWarning,0829.7,5.00,000.00,027.7,026.2,000.0,035.9,029.4,22.2,0000.0,0012.93,0004.12,0003.09
2023-09-02 01:23:00,SystemResetWarning,0829.6,5.00,000.00,027.7,026.5,000.0,035.9,029.5,22.2,0000.0,0012.45,0004.09,0003.09
2023-09-02 01:24:00,SystemResetWarning,0829.6,4.98,000.00,027.7,025.8,000.0,035.9,029.3,22.2,0000.0,0012.56,0004.05,0003.06
2023-09-02 01:25:00,SystemResetWarning,0829.6,5.00,000.00,027.6,024.4,000.0,035.8,028.8,22.4,0000.0,0013.23,0004.01,0003.06
2023-09-02 01:26:00,SystemResetWarning,0829.5,5.01,000.00,027.5,024.1,000.0,035.8,028.7,22.6,0000.0,0013.29,0003.98,0003.07
2023-09-02 01:27:00,SystemResetWarning,0829.5,5.01,000.00,027.5,024.3,000.0,035.8,028.8,23.2,0000.0,0013.51,0004.00,0003.07
2023-09-02 01:28:00,SystemResetWarning,0829.5,5.00,000.00,027.5,024.8,000.0,035.8,028.9,22.6,0000.0,0014.13,0004.06,0003.05
2023-09-02 01:29:00,SystemResetWarning,0829.5,5.00,000.00,027.5,025.2,000.0,035.8,029.1,21.8,0000.0,0013.43,0004.09,0003.04
2023-09-02 01:30:00,SystemResetWarning,0829.6,5.00,000.00,027.5,025.6,000.0,035.8,029.2,21.6,0000.0,0012.87,0004.08,0003.01
2023-09-02 01:31:00,SystemResetWarning,0829.6,5.00,000.00,027.6,026.0,000.0,035.8,029.3,22.0,0000.0,0013.21,0004.03,0003.00
2023-09-02 01:32:00,SystemResetWarning,0829.7,4.99,000.00,027.7,026.4,000.0,035.9,029.5,22.2,0000.0,0014.39,0004.02,0003.01
2023-09-02 01:33:00,SystemResetWarning,0829.6,5.00,000.00,027.7,026.5,000.0,035.9,029.5,21.8,0000.0,0015.24,0004.06,0003.01
2023-09-02 01:34:00,SystemResetWarning,0829.6,4.98,000.00,027.7,025.2,000.0,035.8,029.1,21.9,0000.0,0015.64,0004.09,0003.02
2023-09-02 01:35:00,SystemResetWarning,0829.6,5.01,000.00,027.6,024.0,000.0,035.8,028.7,22.2,0000.0,0016.23,0004.14,0003.04
2023-09-02 01:36:00,SystemResetWarning,0829.6,5.02,000.00,027.5,024.0,000.0,035.7,028.7,21.9,0000.0,0016.01,0004.14,0003.06
2023-09-02 01:37:00,SystemResetWarning,0829.7,5.00,000.00,027.4,024.4,000.0,035.7,028.8,21.9,0000.0,0016.78,0004.14,0003.06
2023-09-02 01:38:00,SystemResetWarning,0829.7,4.99,000.00,027.5,024.8,000.0,035.8,028.9,21.9,0000.0,0017.66,0004.14,0003.07
2023-09-02 01:39:00,SystemResetWarning,0829.7,5.01,000.00,027.5,025.3,000.0,035.8,029.1,21.7,0000.0,0017.81,0004.11,0003.09
2023-09-02 01:40:00,SystemResetWarning,0829.7,5.00,000.00,027.5,025.7,000.0,035.8,029.2,21.8,0000.0,0017.53,0004.11,0003.08
2023-09-02 01:41:00,SystemResetWarning,0829.7,5.00,000.00,027.6,026.1,000.0,035.8,029.4,21.6,0000.0,0017.28,0004.13,0003.10
2023-09-02 01:42:00,SystemResetWarning,0829.7,5.00,000.00,027.7,026.4,000.0,035.9,029.5,21.4,0000.0,0017.18,0004.20,0003.10
2023-09-02 01:43:00,SystemResetWarning,0829.7,4.98,000.00,027.7,026.0,000.0,035.9,029.3,21.2,0000.0,0015.51,0004.19,0003.11
2023-09-02 01:44:00,SystemResetWarning,0829.7,5.00,000.00,027.6,024.5,000.0,035.8,028.8,21.4,0000.0,0014.80,0004.14,0003.11
2023-09-02 01:45:00,SystemResetWarning,0829.7,5.00,000.00,027.5,023.9,000.0,035.7,028.6,21.8,0000.0,0014.41,0004.12,0003.11
2023-09-02 01:46:00,SystemResetWarning,0829.7,5.01,000.00,027.4,024.1,000.0,035.7,028.6,22.0,0000.0,0014.27,0004.15,0003.10
2023-09-02 01:47:00,SystemResetWarning,0829.7,5.01,000.00,027.4,024.5,000.0,035.7,028.7,21.9,0000.0,0014.06,0004.18,0003.10
2023-09-02 01:48:00,SystemResetWarning,0829.7,4.99,000.00,027.4,025.0,000.0,035.7,028.9,21.8,0000.0,0013.44,0004.17,0003.09
2023-09-02 01:49:00,SystemResetWarning,0829.7,5.00,000.00,027.5,025.4,000.0,035.7,029.1,22.0,0000.0,0012.81,0004.19,0003.08
2023-09-02 01:50:00,SystemResetWarning,0829.7,5.01,000.00,027.5,025.8,000.0,035.8,029.2,22.4,0000.0,0012.11,0004.22,0003.08
2023-09-02 01:51:00,SystemResetWarning,0829.7,5.00,000.00,027.6,026.2,000.0,035.8,029.4,21.8,0000.0,0011.60,0004.19,0003.10
2023-09-02 01:52:00,SystemResetWarning,0829.8,4.99,000.00,027.7,026.4,000.0,035.8,029.5,21.7,0000.0,0011.16,0004.17,0003.07
2023-09-02 01:53:00,SystemResetWarning,0829.8,4.99,000.00,027.7,026.3,000.0,035.8,029.4,21.7,0000.0,0011.17,0004.10,0003.05
2023-09-02 01:54:00,SystemResetWarning,0829.7,4.99,000.00,027.6,024.7,000.0,035.8,028.8,21.5,0000.0,0011.27,0004.12,0003.04
2023-09-02 01:55:00,SystemResetWarning,0829.7,5.00,000.00,027.5,023.9,000.0,035.7,028.6,21.7,0000.0,0011.34,0004.12,0003.00
2023-09-02 01:56:00,SystemResetWarning,0829.7,5.01,000.00,027.4,024.0,000.0,035.7,028.6,21.5,0000.0,0011.29,0004.10,0002.98
2023-09-02 01:57:00,SystemResetWarning,0829.7,5.00,000.00,027.4,024.4,000.0,035.7,028.7,21.8,0000.0,0010.93,0004.07,0002.97
2023-09-02 01:58:00,SystemResetWarning,0829.8,5.00,000.00,027.4,024.9,000.0,035.7,028.9,21.8,0000.0,0010.56,0004.02,0002.95
2023-09-02 01:59:00,SystemResetWarning,0829.8,5.01,000.00,027.4,025.3,000.0,035.7,029.0,22.0,0000.0,0010.16,0004.01,0002.94
